Ariane 44L Rocket - Orbit

View from above orbital plane
View from above orbital plane
View from above satellite
View from above satellite

Ground track
Ground track

The orbit data is extracted from the following two-line orbital elements,

1 25640U 99009C   13042.24401517  .87239670 -36308-4  68966-3 0  8509
2 25640 006.8581 268.3374 0089442 170.6532 325.7711 16.39183035191760
Epoch (UTC): 11 February 2013 05:51:22
Eccentricity: 0.0089442
inclination: 6.8581°
perigee height: 109 km
apogee height: 226 km
right ascension of ascending node: 268.3374°
argument of perigee: 170.6532°
revolutions per day: 16.39183035
mean anomaly at epoch: 325.7711°
orbit number at epoch: 19176

The dashed part of the orbit path shows where the satellite is in the earth's shadow,  

Developed and maintained by Chris Peat, Heavens-Above GmbH. Please read the updated FAQ before sending e-mail. Imprint. DLR